This demonstration page uses our WeatherBlox Daily Observations layout. Learn more.

Left ArrowRight Arrow

39.01783, -85.05884

Hourly Observations for November 25, 2020

Temp ( °F °C ) Dew Point ( °F °C ) Humidity (%) Winds ( mph kmh ) Pressure ( in mb ) Visibility ( mi km ) Precip ( " mm )
12:52 am 00:52 Cloudy 45 7.2 34 1.1 66 66 SSE 12 19 30.02 1017 10 16.0934 0 0
1:52 am 01:52 Cloudy 46 7.8 35 1.7 66 66 S 7 11 30.01 1016 10 16.0934 0 0
2:52 am 02:52 Cloudy with Light Rain 46 7.8 36 2.2 68 68 S 7 11 30.02 1017 10 16.0934 0.001 0.001
3:52 am 03:52 Cloudy with Light Rain 45 7.2 38 3.3 77 77 S 6 9 30.03 1017 10 16.0934 0.03 0.762
4:52 am 04:52 Cloudy with Rain 45 7.2 40 4.4 83 83 SSE 8 13 30.01 1016 6 9.65604 0.07 1.778
5:52 am 05:52 Cloudy with Heavy Rain 45 7.2 41 5 86 86 SE 8 13 30.01 1016 4 6.43736 0.29 7.366
6:28 am 06:28 Cloudy with Heavy Rain 44 6.7 41 5 89 89 SSE 10 17 30.03 1017 2.5 4.02335 0.13 3.302
6:52 am 06:52 Cloudy with Rain 45 7.2 42 5.6 90 90 SSE 9 15 30.01 1016 2.5 4.02335 0.22 5.588
6:54 am 06:54 Cloudy with Rain 45 7.2 42 5.6 90 90 SSE 9 15 30.02 1017 4 6.43736 0.01 0.254
7:47 am 07:47 Cloudy with Nearby Thunderstorms 45 7 43 6 93 93 SSE 17 28 30.02 1017 4 6.43736 0.18 4.572
7:52 am 07:52 Cloudy with Nearby Thunderstorms 46 7.8 43 6.1 89 89 SSE 16 26 29.99 1016 4 6.43736 0.2 5.08
8:02 am 08:02 Cloudy with Rain 46 7.8 43 6.1 89 89 SSE 20 31 30.01 1016 4 6.43736 0.04 1.016
8:52 am 08:52 Cloudy with Rain 49 9.4 46 7.8 90 90 SSE 18 30 29.96 1014 5 8.0467 0.18 4.572
9:52 am 09:52 Cloudy with Light Rain 51 10.6 47 8.3 86 86 S 18 30 29.93 1014 6 9.65604 0.1 2.54
10:52 am 10:52 Cloudy with Rain 50 10 47 8.3 89 89 SSE 17 28 29.92 1013 4 6.43736 0.06 1.524
11:29 am 11:29 Cloudy with Light Rain 51 10.6 48 8.9 89 89 S 21 33 29.9 1012 8 12.87472 0.04 1.016
11:52 am 11:52 Cloudy 52 11.1 48 8.9 86 86 SSE 17 28 29.88 1012 10 16.0934 0.05 1.27
11:58 am 11:58 Cloudy 52 11.1 49 9.4 89 89 S 16 26 29.89 1012 10 16.0934 0 0
12:41 pm 12:41 Cloudy 54 12.2 50 10 87 87 S 18 30 29.86 1011 10 16.0934 0.01 0.254
12:52 pm 12:52 Cloudy 55 12.8 51 10.6 87 87 S 16 26 29.86 1011 10 16.0934 0.01 0.254
1:52 pm 13:52 Cloudy 56 13.3 52 11.1 87 87 S 14 22 29.83 1010 10 16.0934 0.001 0.001
2:52 pm 14:52 Cloudy 57 13.9 52 11.1 83 83 S 16 26 29.81 1009 10 16.0934 0 0
3:52 pm 15:52 Cloudy 56 13.3 53 11.7 90 90 SSE 14 22 29.78 1009 9 14.48406 0.001 0.001
4:52 pm 16:52 Mostly Cloudy 59 15 53 11.7 81 81 S 17 28 29.77 1008 10 16.0934 0 0
5:10 pm 17:10 Partly Cloudy 59 15 53 11.7 81 81 S 17 28 29.76 1008 10 16.0934 0 0
7:36 pm 19:36 Cloudy with Rain 58 14.4 53 11.7 84 84 W 21 33 29.79 1009 4 6.43736 0.03 0.762
7:38 pm 19:38 Cloudy with Heavy Rain 58 14.4 53 11.7 84 84 W 16 26 29.78 1008 2 3.21868 0.03 0.762
7:43 pm 19:43 Cloudy with Rain 57 13.9 53 11.7 87 87 SW 13 20 29.79 1009 4 6.43736 0.1 2.54
7:52 pm 19:52 Cloudy with Light Rain 57 13.9 53 11.7 87 87 SSW 14 22 29.78 1008 9 14.48406 0.13 3.302
8:36 pm 20:36 Cloudy 57 13.9 52 11.1 83 83 SW 10 17 29.79 1009 10 16.0934 0.03 0.762
8:52 pm 20:52 Mostly Cloudy 56 13.3 51 10.6 84 84 WSW 15 24 29.79 1009 10 16.0934 0.03 0.762
9:00 pm 21:00 Partly Cloudy 56 13.3 51 10.6 84 84 SW 14 22 29.8 1009 10 16.0934 0 0
9:52 pm 21:52 Mostly Clear 54 12.2 48 8.9 80 80 SW 16 26 29.81 1010 10 16.0934 0 0
10:52 pm 22:52 Cloudy 54 12.2 48 8.9 80 80 SW 12 19 29.85 1011 10 16.0934 0 0
11:52 pm 23:52 Cloudy 53 11.7 48 8.9 83 83 WSW 13 20 29.88 1012 10 16.0934 0.001 0.001

Powered by AerisWeather